• In Sweden
  • List of Countries
  • For 7 days
  • Water Temperature
  • Satellite Maps
  • Weather Map
  • Weather Widgets
  • user-avatar
    Login

    Hourly Weather Myasoedovo

    Today, 23 October, Tuesday

    Time Temperature Precipitation Wind Pressure Humidity
    00:00 +1°C° 0 mm 4 mps 736 mmHg 85%
    01:00 +1°C° 0 mm 4 mps 735 mmHg 87%
    02:00 +1°C° 0 mm 4 mps 734 mmHg 88%
    03:00 +1°C° 0.2 mm 4 mps 734 mmHg 90%
    04:00 +3°C° 0.2 mm 4 mps 733 mmHg 91%
    05:00 +3°C° 0.2 mm 4 mps 733 mmHg 92%
    06:00 +3°C° 0.1 mm 3 mps 733 mmHg 92%
    07:00 +3°C° 0.1 mm 3 mps 732 mmHg 92%
    08:00 +4°C° 0 mm 3 mps 732 mmHg 91%
    09:00 +4°C° 0 mm 3 mps 732 mmHg 87%
    10:00 +5°C° 0 mm 3 mps 731 mmHg 83%
    11:00 +5°C° 0 mm 3 mps 731 mmHg 79%
    12:00 +5°C° 0 mm 3 mps 730 mmHg 77%
    13:00 +5°C° 0 mm 3 mps 730 mmHg 76%
    14:00 +6°C° 0 mm 2 mps 729 mmHg 73%
    15:00 +6°C° 0 mm 2 mps 729 mmHg 76%
    16:00 +5°C° 0 mm 2 mps 728 mmHg 78%
    17:00 +5°C° 0 mm 2 mps 727 mmHg 81%
    18:00 +4°C° 0 mm 2 mps 726 mmHg 82%
    19:00 +4°C° 0 mm 2 mps 726 mmHg 84%
    20:00 +3°C° 0 mm 3 mps 725 mmHg 85%
    21:00 +3°C° 0.2 mm 3 mps 724 mmHg 84%
    22:00 +3°C° 0.2 mm 3 mps 723 mmHg 83%
    23:00 +3°C° 0.2 mm 3 mps 722 mmHg 82%

    Tomorrow, 24 October, Wednesday

    Time Temperature Precipitation Wind Pressure Humidity
    00:00 +3°C° 0.3 mm 4 mps 721 mmHg 83%
    01:00 +3°C° 0.3 mm 4 mps 721 mmHg 83%
    02:00 +1°C° 0.3 mm 4 mps 720 mmHg 84%
    03:00 +1°C° 0.3 mm 4 mps 719 mmHg 84%
    04:00 +3°C° 0.3 mm 4 mps 718 mmHg 85%
    05:00 +3°C° 0.3 mm 4 mps 717 mmHg 85%
    06:00 +3°C° 0.3 mm 4 mps 717 mmHg 86%
    07:00 +3°C° 0.3 mm 4 mps 716 mmHg 86%
    08:00 +3°C° 0.3 mm 4 mps 716 mmHg 86%
    09:00 +3°C° 0.4 mm 4 mps 716 mmHg 86%
    10:00 +4°C° 0.4 mm 3 mps 715 mmHg 86%
    11:00 +4°C° 0.4 mm 3 mps 715 mmHg 86%
    12:00 +4°C° 0.2 mm 3 mps 715 mmHg 86%
    13:00 +6°C° 0.2 mm 2 mps 715 mmHg 86%
    14:00 +6°C° 0.2 mm 2 mps 715 mmHg 86%
    15:00 +6°C° 0.1 mm 1 mps 715 mmHg 88%
    16:00 +6°C° 0.1 mm 1 mps 715 mmHg 91%
    17:00 +6°C° 0.1 mm 1 mps 715 mmHg 93%
    18:00 +6°C° 0 mm 1 mps 716 mmHg 94%
    19:00 +5°C° 0 mm 1 mps 716 mmHg 94%
    20:00 +5°C° 0 mm 1 mps 716 mmHg 95%
    21:00 +4°C° 0.1 mm 2 mps 716 mmHg 95%
    22:00 +4°C° 0.1 mm 2 mps 716 mmHg 95%
    23:00 +3°C° 0.1 mm 3 mps 716 mmHg 95%

    Day after tomorrow, 25 October, Thursday

    Time Temperature Precipitation Wind Pressure Humidity
    00:00 +3°C° 0.3 mm 3 mps 716 mmHg 93%
    01:00 +3°C° 0.3 mm 4 mps 716 mmHg 92%
    02:00 +3°C° 0.3 mm 4 mps 716 mmHg 90%
    03:00 +2°C° 0.5 mm 5 mps 716 mmHg 88%
    04:00 +2°C° 0.5 mm 5 mps 717 mmHg 87%
    05:00 +2°C° 0.5 mm 6 mps 717 mmHg 85%
    06:00 +1°C° 0.5 mm 6 mps 717 mmHg 84%
    07:00 +1°C° 0.5 mm 6 mps 717 mmHg 83%
    08:00 +1°C° 0.5 mm 6 mps 718 mmHg 81%
    09:00 +1°C° 0.3 mm 6 mps 718 mmHg 80%
    10:00 +1°C° 0.3 mm 6 mps 718 mmHg 78%
    11:00 +1°C° 0.3 mm 6 mps 719 mmHg 77%
    12:00 +1°C° 0.1 mm 6 mps 719 mmHg 75%
    13:00 +1°C° 0.1 mm 5 mps 719 mmHg 73%
    14:00 +1°C° 0.1 mm 5 mps 720 mmHg 72%
    15:00 +1°C° 0 mm 5 mps 720 mmHg 73%
    16:00 +1°C° 0 mm 4 mps 720 mmHg 75%
    17:00 0°C° 0 mm 4 mps 721 mmHg 76%
    18:00 0°C° 0 mm 4 mps 721 mmHg 77%
    19:00 0°C° 0 mm 4 mps 721 mmHg 78%
    20:00 +1°C° 0 mm 3 mps 722 mmHg 78%
    21:00 +1°C° 0 mm 3 mps 722 mmHg 81%
    22:00 +1°C° 0 mm 3 mps 722 mmHg 83%
    23:00 +1°C° 0 mm 3 mps 722 mmHg 86%

    26 October, Friday

    Time Temperature Precipitation Wind Pressure Humidity
    00:00 0°C° 0 mm 3 mps 722 mmHg 88%
    01:00 0°C° 0 mm 3 mps 723 mmHg 90%
    02:00 -1°C° 0 mm 3 mps 723 mmHg 93%
    03:00 -1°C° 0 mm 3 mps 723 mmHg 93%
    04:00 -1°C° 0 mm 3 mps 723 mmHg 93%
    05:00 -2°C° 0 mm 3 mps 723 mmHg 94%
    06:00 -1°C° 0.1 mm 3 mps 724 mmHg 92%
    07:00 -1°C° 0.1 mm 4 mps 724 mmHg 89%
    08:00 -1°C° 0.1 mm 4 mps 724 mmHg 87%
    09:00 0°C° 0.1 mm 4 mps 724 mmHg 85%
    10:00 +1°C° 0.1 mm 4 mps 724 mmHg 82%
    11:00 +1°C° 0.1 mm 5 mps 725 mmHg 79%
    12:00 +1°C° 0.5 mm 5 mps 725 mmHg 80%
    13:00 +1°C° 0.5 mm 4 mps 725 mmHg 81%
    14:00 +1°C° 0.5 mm 4 mps 725 mmHg 82%
    15:00 +1°C° 0.1 mm 4 mps 725 mmHg 83%
    16:00 +1°C° 0.1 mm 3 mps 726 mmHg 85%
    17:00 0°C° 0.1 mm 3 mps 726 mmHg 87%
    18:00 0°C° 0 mm 3 mps 727 mmHg 88%
    19:00 0°C° 0 mm 3 mps 727 mmHg 89%
    20:00 0°C° 0 mm 3 mps 728 mmHg 90%
    21:00 0°C° 0 mm 3 mps 728 mmHg 91%
    22:00 -1°C° 0 mm 3 mps 728 mmHg 91%
    23:00 -1°C° 0 mm 3 mps 728 mmHg 92%

    27 October, Saturday

    Time Temperature Precipitation Wind Pressure Humidity
    00:00 -1°C° 0 mm 3 mps 728 mmHg 93%
    01:00 -1°C° 0 mm 3 mps 728 mmHg 93%
    02:00 -1°C° 0 mm 3 mps 729 mmHg 94%
    03:00 -1°C° 0.2 mm 3 mps 728 mmHg 93%
    04:00 -1°C° 0.2 mm 4 mps 728 mmHg 93%
    05:00 0°C° 0.2 mm 4 mps 727 mmHg 92%
    06:00 0°C° 0.6 mm 5 mps 726 mmHg 91%
    07:00 +1°C° 0.6 mm 5 mps 726 mmHg 89%
    08:00 +1°C° 0.6 mm 6 mps 725 mmHg 88%
    09:00 +2°C° 1.3 mm 6 mps 724 mmHg 88%
    10:00 +2°C° 1.3 mm 6 mps 723 mmHg 89%
    11:00 +3°C° 1.3 mm 6 mps 722 mmHg 89%
    12:00 +3°C° 0.8 mm 6 mps 722 mmHg 88%
    13:00 +4°C° 0.8 mm 6 mps 721 mmHg 86%
    14:00 +4°C° 0.8 mm 7 mps 720 mmHg 85%
    15:00 +4°C° 0.4 mm 6 mps 721 mmHg 83%
    16:00 +3°C° 0.4 mm 6 mps 721 mmHg 82%
    17:00 +3°C° 0.4 mm 6 mps 721 mmHg 80%
    18:00 +2°C° 0.2 mm 7 mps 722 mmHg 79%
    19:00 +1°C° 0.2 mm 8 mps 723 mmHg 79%
    20:00 0°C° 0.2 mm 9 mps 724 mmHg 78%
    21:00 0°C° 0 mm 8 mps 726 mmHg 78%
    22:00 -1°C° 0 mm 8 mps 727 mmHg 77%
    23:00 -2°C° 0 mm 7 mps 729 mmHg 77%

    28 October, Sunday

    Time Temperature Precipitation Wind Pressure Humidity
    00:00 -2°C° 0 mm 7 mps 730 mmHg 79%
    01:00 -3°C° 0 mm 6 mps 731 mmHg 81%
    02:00 -2°C° 0 mm 5 mps 733 mmHg 83%
    03:00 -2°C° 0 mm 5 mps 733 mmHg 83%
    04:00 -2°C° 0 mm 4 mps 734 mmHg 84%
    05:00 -2°C° 0 mm 4 mps 735 mmHg 85%
    06:00 -2°C° 0 mm 4 mps 736 mmHg 86%
    07:00 -2°C° 0 mm 4 mps 737 mmHg 86%
    08:00 -2°C° 0 mm 4 mps 738 mmHg 87%
    09:00 -2°C° 0 mm 4 mps 738 mmHg 84%
    10:00 -1°C° 0 mm 4 mps 739 mmHg 80%
    11:00 -1°C° 0 mm 4 mps 740 mmHg 77%
    12:00 0°C° 0 mm 4 mps 740 mmHg 75%
    13:00 0°C° 0 mm 4 mps 741 mmHg 73%
    14:00 0°C° 0 mm 4 mps 741 mmHg 71%
    15:00 0°C° 0 mm 3 mps 742 mmHg 75%
    16:00 +1°C° 0 mm 2 mps 742 mmHg 80%
    17:00 +1°C° 0 mm 1 mps 743 mmHg 84%
    18:00 +1°C° 0 mm 1 mps 743 mmHg 84%
    19:00 +1°C° 0 mm 1 mps 743 mmHg 85%
    20:00 +1°C° 0 mm 1 mps 744 mmHg 85%
    21:00 +1°C° 0 mm 1 mps 744 mmHg 85%
    22:00 +1°C° 0 mm 1 mps 745 mmHg 85%
    23:00 +1°C° 0 mm 1 mps 745 mmHg 85%

    29 October, Monday

    Time Temperature Precipitation Wind Pressure Humidity
    00:00 0°C° 0 mm 1 mps 745 mmHg 85%
    01:00 -1°C° 0 mm 0 mps 745 mmHg 86%
    02:00 -1°C° 0 mm 0 mps 745 mmHg 86%
    03:00 -1°C° 0 mm 0 mps 745 mmHg 86%
    04:00 -1°C° 0 mm 0 mps 746 mmHg 85%
    05:00 0°C° 0 mm 0 mps 746 mmHg 85%
    06:00 +1°C° 0.1 mm 1 mps 746 mmHg 85%
    07:00 +1°C° 0.1 mm 1 mps 746 mmHg 85%
    08:00 +1°C° 0.1 mm 1 mps 746 mmHg 85%
    09:00 +1°C° 0.2 mm 1 mps 746 mmHg 85%
    10:00 +2°C° 0.2 mm 1 mps 746 mmHg 85%
    11:00 +1°C° 0.2 mm 2 mps 746 mmHg 85%
    12:00 +1°C° 0.6 mm 2 mps 745 mmHg 86%
    13:00 +1°C° 0.6 mm 2 mps 745 mmHg 88%
    14:00 +1°C° 0.6 mm 2 mps 745 mmHg 89%
    15:00 -1°C° 0.7 mm 3 mps 745 mmHg 90%
    16:00 -1°C° 0.7 mm 3 mps 744 mmHg 92%
    17:00 -1°C° 0.7 mm 3 mps 744 mmHg 93%
    18:00 -2°C° 0.5 mm 4 mps 744 mmHg 93%
    19:00 -2°C° 0.5 mm 4 mps 744 mmHg 93%
    20:00 -2°C° 0.5 mm 4 mps 743 mmHg 93%
    21:00 -3°C° 0.8 mm 4 mps 743 mmHg 93%
    22:00 -4°C° 0.8 mm 5 mps 743 mmHg 93%
    23:00 -4°C° 0.8 mm 5 mps 742 mmHg 93%
    Show more